[[{"header":{"parameterUnit":"m.s-1","parameterCategory":1,"la1":30.2991,"la2":30.254,"lo1":-89.0895,"lo2":-89.0444,"dy":0.0017,"dx":0.0017,"nx":28,"ny":28,"refTime":"2024-07-09T21:00:00:Z","depth":0,"parameterNumber":2,"parameterNumberName":"U-component_of_WINDS"},"data":[0,0,0,0,0,0,0,0,0,0,0,0,0,0,0,0,0,0,0,0,0,0,0,0,0,0,0,0,0,0,0,0,0,0,0,0,0,0,0,0,0,0,0,0,0,0,0,0,0,0,0,0,0,0,0,0,0,0,3.4215,3.4217,0,3.4366,3.4368,3.4369,3.4346,3.4344,3.4341,3.4339,3.4495,3.4501,3.4508,0,0,0,0,0,0,0,0,0,0,0,0,0,3.3907,3.3913,3.4215,3.4217,3.4219,3.4366,3.4368,3.437,3.4347,3.4344,3.4341,3.4338,3.4493,3.4501,3.4508,0,0,0,0,0,0,0,0,0,0,0,0,0,3.4048,3.3915,3.4215,3.4225,3.4227,3.4365,3.4368,3.437,3.4348,3.4344,3.434,3.4336,3.449,3.45,3.451,3.4647,0,0,3.454,3.4544,0,0,0,0,0,0,0,0,3.404,3.4059,3.4222,3.4225,3.4227,3.4333,3.4316,3.4463,3.4349,3.4302,3.4339,3.4334,3.4444,3.4458,3.4495,3.4654,3.4661,3.454,3.4546,3.4551,3.4553,0,0,0,0,0,0,0,3.403,3.4052,3.4275,3.4224,3.4228,3.4222,3.4238,3.4344,3.4393,3.4306,3.4304,3.4323,3.4445,3.4485,3.4498,3.4663,3.454,3.4549,3.4555,3.4559,3.494,3.4944,0,0,0,0,0,0,3.4017,3.4044,3.427,3.4279,3.4122,3.4231,3.4248,3.4303,3.4392,3.4402,3.4326,3.4321,3.447,3.4487,3.4503,3.4668,3.455,3.456,3.4565,3.4936,3.4941,3.4946,0,0,0,0,0,0,3.4011,3.4038,3.4264,3.4162,3.419,3.424,3.4302,3.4308,3.4348,3.4407,3.4415,3.4357,3.4468,3.449,3.4611,3.4673,3.4564,3.4573,3.4931,3.4938,3.4944,3.4999,0,0,0,0,0,0,3.4002,3.4035,3.4088,3.4163,3.4195,3.4369,3.4306,3.4314,3.4365,3.436,3.4439,3.4448,3.4467,3.4596,3.462,3.4684,3.4581,3.4926,3.4934,3.4942,3.4992,3.5006,3.5019,0,0,0,0,0,3.3991,3.4099,3.4091,3.4118,3.4263,3.4372,3.4391,3.4409,3.437,3.4423,3.446,3.4446,3.4663,3.4609,3.4636,3.4704,3.4922,3.4932,3.4941,3.4986,3.5004,3.5019,0,0,0,0,0,0,3.4031,3.4109,3.4101,3.4236,3.4298,3.4368,3.4436,3.4428,3.4503,3.4495,3.4516,3.4533,3.4655,3.4692,3.4631,3.484,3.4787,3.4802,3.4811,3.4829,3.4842,3.483,3.4589,0,0,0,0,0,3.4056,3.4138,3.4202,3.4315,3.4346,3.4386,3.4434,3.4443,3.4508,3.4534,3.458,3.4644,3.4726,3.478,3.4859,3.4997,3.5013,3.5058,3.5071,3.5082,3.5095,3.5168,3.5187,3.4977,3.4977,3.4977,0,0,3.4108,3.416,3.4211,3.4324,3.4373,3.4457,3.4408,3.45,3.4562,3.4548,3.4664,3.47,3.4773,3.4902,3.4962,3.4937,3.5156,3.5094,3.5102,3.5109,3.518,3.5199,3.5217,3.4984,3.4983,3.4982,0,0,3.4244,3.4293,3.4391,3.444,3.4514,3.454,3.4563,3.4635,3.4658,3.4775,3.4765,3.484,3.4982,3.5033,3.5077,3.5231,3.5219,3.5257,3.5327,3.5398,3.5415,3.5429,3.5482,3.5501,3.5269,3.5269,3.527,0,3.4299,3.4425,3.4443,3.4535,3.4584,3.4574,3.4673,3.472,3.4817,3.4851,3.4821,3.4997,3.5045,3.5185,3.5222,3.526,3.5286,3.5247,3.5411,3.5426,3.544,3.549,3.551,3.5273,3.5273,3.5272,3.5272,0,3.4488,3.4576,3.4646,3.4737,3.4795,3.489,3.4921,3.4978,3.4981,3.5009,3.5127,3.5185,3.5274,3.5308,3.5314,3.5449,3.543,3.5406,3.5352,3.5463,3.5511,3.553,3.5279,3.5277,3.5276,3.5275,0,0,3.4654,3.4753,3.4778,3.4818,3.4898,3.4966,3.506,3.5147,3.5193,3.526,3.5338,3.5458,3.5435,3.5485,3.5496,3.5559,3.5674,3.5526,3.5528,3.555,3.5823,3.5839,3.5861,3.5667,3.5671,3.5674,3.5816,0,3.4796,3.4962,3.4979,3.5127,3.5207,3.5198,3.528,3.5337,3.5366,3.5438,3.5471,3.5554,3.5519,3.5548,3.561,3.5647,3.5728,3.5637,3.5739,3.5742,3.5719,3.5887,3.5905,3.6036,3.5835,3.5838,3.5841,0,3.4985,3.5054,3.521,3.5276,3.531,3.5383,3.5462,3.5532,3.5597,3.5613,3.5668,3.5671,3.5767,3.5711,3.5843,3.578,3.5823,3.5847,3.5852,3.5861,3.5797,3.5897,3.6079,3.6097,3.587,3.5868,3.5866,0,3.5087,3.522,3.5329,3.5365,3.5446,3.5497,3.5533,3.5594,3.5643,3.5713,3.5745,3.5826,3.5869,3.5931,3.5955,3.5912,3.6085,3.6031,3.61,3.6099,3.6135,3.6132,3.6323,3.6167,3.6167,3.6166,3.6166,0,3.5243,3.5337,3.5376,3.5443,3.5548,3.5568,3.5671,3.5705,3.5759,3.5832,3.583,3.5899,3.5926,3.5999,3.6019,3.6123,3.6144,3.6159,3.6162,3.6158,3.6156,3.6185,3.6175,3.6171,3.617,3.6169,3.6168,0,3.5374,3.5404,3.5522,3.5588,3.5607,3.5682,3.5738,3.5802,3.583,3.5922,3.5945,3.5988,3.6074,3.6103,3.6208,3.622,3.6341,3.6339,3.6319,3.6319,3.6385,3.6378,3.66,3.6629,3.6456,3.6457,3.6459,0,3.547,3.5543,3.5616,3.5664,3.5701,3.578,3.583,3.5851,3.5904,3.5981,3.6036,3.6121,3.6189,3.6326,3.6367,3.6446,3.6444,3.6516,3.6455,3.6448,3.6442,3.6436,3.6442,3.6527,3.6529,3.653,3.6531,0,3.5637,3.5648,3.572,3.5797,3.5857,3.5919,3.5979,3.6019,3.6049,3.6108,3.6194,3.6247,3.6352,3.6436,3.6516,3.6553,3.6547,3.655,3.657,3.6565,3.6549,3.6556,3.6347,3.6545,3.6543,3.6542,3.6542,3.6541,3.5752,3.5815,3.5875,3.5955,3.6002,3.6058,3.6121,3.6155,3.6227,3.6314,3.6323,3.6415,3.6476,3.6583,3.6624,3.6697,3.6677,3.6706,3.6713,3.6719,3.6722,3.6539,3.6712,3.6712,3.6711,3.6711,3.6711,0,3.5917,3.5955,3.6028,3.6111,3.6173,3.6161,3.6227,3.628,3.6361,3.6418,3.6485,3.6583,3.6663,3.671,3.679,3.6839,3.6838,3.6859,3.6855,3.6863,3.6737,3.6711,3.6859,3.6859,3.6859,3.6858,3.6858,3.6858,3.6009,3.6114,3.6131,3.6259,3.6296,3.6386,3.6424,3.6474,3.652,3.6629,3.6695,3.6725,3.6777,3.6861,3.6934,3.6945,3.6974,3.6997,3.7006,3.6887,3.6872,3.6858,3.6833,3.7004,3.7004,3.7125,3.7126,3.7127]},{"header":{"parameterUnit":"m.s-1","parameterCategory":1,"la1":30.2991,"la2":30.254,"lo1":-89.0895,"lo2":-89.0444,"dy":0.0017,"dx":0.0017,"nx":28,"ny":28,"refTime":"2024-07-09T21:00:00:Z","depth":0,"parameterNumber":3,"parameterNumberName":"V-component_of_WINDS"},"data":[0,0,0,0,0,0,0,0,0,0,0,0,0,0,0,0,0,0,0,0,0,0,0,0,0,0,0,0,0,0,0,0,0,0,0,0,0,0,0,0,0,0,0,0,0,0,0,0,0,0,0,0,0,0,0,0,0,0,0.5992,0.5992,0,0.5977,0.5977,0.5977,0.5965,0.5964,0.5964,0.5964,0.5948,0.5947,0.5947,0,0,0,0,0,0,0,0,0,0,0,0,0,0.6009,0.6009,0.5992,0.5992,0.5992,0.5977,0.5977,0.5977,0.5965,0.5964,0.5964,0.5964,0.5948,0.5948,0.5947,0,0,0,0,0,0,0,0,0,0,0,0,0,0.5999,0.6009,0.5992,0.5984,0.5983,0.5977,0.5977,0.5977,0.5965,0.5964,0.5964,0.5964,0.5948,0.5948,0.5947,0.5948,0,0,0.5946,0.5945,0,0,0,0,0,0,0,0,0.5999,0.5998,0.5985,0.5985,0.5984,0.5973,0.5977,0.5967,0.5965,0.5972,0.5964,0.5964,0.5956,0.5955,0.5952,0.5947,0.5946,0.5946,0.5945,0.5945,0.5945,0,0,0,0,0,0,0,0.6,0.5998,0.5986,0.5985,0.5984,0.5981,0.5979,0.5975,0.5965,0.5971,0.597,0.5969,0.5956,0.5953,0.5952,0.5946,0.5946,0.5945,0.5945,0.5945,0.5938,0.5938,0,0,0,0,0,0,0.6002,0.5999,0.5987,0.5986,0.5991,0.598,0.5979,0.5976,0.5965,0.5963,0.5969,0.5968,0.5954,0.5953,0.5951,0.595,0.5945,0.5945,0.5944,0.5938,0.5938,0.5938,0,0,0,0,0,0,0.6002,0.6001,0.5987,0.5992,0.599,0.598,0.5978,0.5976,0.5973,0.5963,0.5961,0.5968,0.5954,0.5952,0.5948,0.595,0.5944,0.5944,0.5938,0.5938,0.5938,0.5949,0,0,0,0,0,0,0.6003,0.6001,0.6002,0.5992,0.599,0.5985,0.5978,0.5976,0.5973,0.5972,0.5962,0.596,0.5953,0.5949,0.5948,0.5949,0.5943,0.5938,0.5938,0.5938,0.5948,0.5949,0.595,0,0,0,0,0,0.6004,0.6006,0.6002,0.6001,0.5991,0.5985,0.5984,0.5976,0.5973,0.5973,0.5966,0.5961,0.595,0.5949,0.5947,0.5948,0.5937,0.5938,0.5938,0.5948,0.5949,0.595,0,0,0,0,0,0,0.6016,0.6004,0.6,0.5999,0.5993,0.5983,0.5983,0.5978,0.5973,0.5972,0.5962,0.596,0.5957,0.5952,0.5952,0.5947,0.5943,0.5943,0.5951,0.5952,0.5953,0.5954,0.5943,0,0,0,0,0,0.6018,0.6015,0.6005,0.6005,0.6003,0.5993,0.5991,0.5985,0.5979,0.5976,0.5969,0.5962,0.5957,0.5954,0.5949,0.5947,0.5944,0.5947,0.5948,0.5949,0.5949,0.5946,0.5947,0.5939,0.5939,0.5939,0,0,0.6024,0.6017,0.6016,0.6008,0.6002,0.5999,0.5992,0.5988,0.5985,0.5975,0.5971,0.5966,0.5958,0.5955,0.5953,0.595,0.595,0.5949,0.595,0.5949,0.5946,0.5947,0.5948,0.5939,0.5939,0.5939,0,0,0.6032,0.6027,0.6026,0.602,0.6012,0.6006,0.6006,0.5996,0.5992,0.5988,0.598,0.5976,0.5967,0.5961,0.5957,0.5961,0.5955,0.596,0.5965,0.5962,0.5963,0.5963,0.5964,0.5964,0.596,0.596,0.596,0,0.6039,0.6034,0.6026,0.6023,0.6019,0.6009,0.6008,0.6003,0.5994,0.5991,0.5988,0.5976,0.597,0.5965,0.5966,0.5963,0.5962,0.5961,0.5964,0.5964,0.5964,0.5965,0.5965,0.596,0.596,0.596,0.596,0,0.6043,0.604,0.604,0.6031,0.6027,0.6025,0.6015,0.6012,0.6006,0.6,0.5995,0.5987,0.5979,0.5978,0.5972,0.5971,0.597,0.5965,0.5961,0.5966,0.5966,0.5966,0.5961,0.5961,0.5961,0.5961,0,0,0.6059,0.6045,0.6045,0.604,0.603,0.6027,0.6023,0.6016,0.6013,0.6007,0.6003,0.5995,0.5991,0.5986,0.598,0.5978,0.598,0.5973,0.5973,0.5974,0.5977,0.598,0.5981,0.5976,0.5976,0.5976,0.5978,0,0.6065,0.606,0.6051,0.6048,0.6044,0.6034,0.6031,0.6023,0.6017,0.6012,0.6005,0.5999,0.5994,0.5991,0.5988,0.598,0.598,0.598,0.5972,0.5972,0.5974,0.5981,0.5985,0.5987,0.5978,0.5978,0.5978,0,0.6072,0.6066,0.6062,0.6051,0.6049,0.6046,0.6038,0.6034,0.6025,0.602,0.6014,0.6007,0.6002,0.5997,0.599,0.5989,0.5985,0.5981,0.598,0.5979,0.5975,0.598,0.5988,0.5988,0.5978,0.5978,0.5978,0,0.6083,0.6074,0.607,0.6066,0.6053,0.6052,0.6046,0.6037,0.6033,0.6025,0.6022,0.6014,0.601,0.6003,0.5994,0.5992,0.5986,0.5982,0.5982,0.5982,0.5981,0.5982,0.5988,0.5979,0.5979,0.5979,0.5979,0,0.6091,0.6089,0.6075,0.6072,0.6069,0.6059,0.6056,0.6049,0.6041,0.6037,0.6027,0.6023,0.6011,0.6005,0.5997,0.5991,0.599,0.5985,0.5983,0.5986,0.5986,0.5983,0.5983,0.5979,0.5979,0.5979,0.5979,0,0.6103,0.6094,0.6089,0.6077,0.6074,0.6072,0.6061,0.6058,0.605,0.6045,0.6043,0.6031,0.6023,0.6013,0.6002,0.5997,0.5991,0.5988,0.5995,0.5993,0.5994,0.5994,0.5999,0.5998,0.599,0.599,0.599,0,0.6109,0.6107,0.6094,0.609,0.6085,0.608,0.6075,0.6064,0.606,0.6049,0.6046,0.6038,0.6031,0.6019,0.6009,0.6,0.5996,0.5999,0.5995,0.5997,0.5996,0.5996,0.5995,0.6,0.6,0.6,0.6,0,0.6119,0.6114,0.6108,0.61,0.6095,0.6088,0.608,0.6078,0.6065,0.606,0.6052,0.6047,0.6035,0.6026,0.6016,0.6009,0.6002,0.6001,0.6,0.6003,0.6007,0.6004,0.5997,0.6001,0.6001,0.6001,0.6001,0.6001,0.6127,0.6125,0.6115,0.6109,0.6102,0.6095,0.6091,0.6083,0.6076,0.6066,0.606,0.6052,0.6041,0.6027,0.602,0.6013,0.601,0.601,0.601,0.601,0.601,0.6008,0.6011,0.6011,0.6011,0.6011,0.6011,0,0.6137,0.613,0.6124,0.6113,0.6108,0.6102,0.6093,0.6088,0.6081,0.6072,0.6065,0.6055,0.6047,0.6035,0.6026,0.6022,0.6018,0.602,0.602,0.6018,0.6014,0.6015,0.6023,0.6023,0.6023,0.6023,0.6023,0.6023,0.6141,0.6136,0.613,0.6121,0.6114,0.6106,0.6101,0.6094,0.6087,0.6077,0.607,0.6062,0.6052,0.6041,0.6032,0.6029,0.6026,0.6028,0.6024,0.602,0.6019,0.6018,0.6019,0.6027,0.6027,0.6029,0.6029,0.6029]}]]